星链-3859 (STARLINK-3859 )

导读

STARLINK-3859是美国SpaceX公司星链(Starlink)项目中的一颗卫星,于2022年5月6日发射升空,属于星链星座的组成部分。星链项目旨在构建全球卫星互联网星座,为全球偏远地区、海洋等缺乏网络覆盖的区域提供高速互联网接入服务,这颗卫星承担着低轨通信组网的相关任务。

Basic Information
目录编号:
52470
目录名称:
STARLINK-3859
国际标识:
2022-049V
轨道中心:
EARTH
卫星名称:
星链-3859
卫星全名:
星链-3859 (STARLINK-3859 )
卫星状态:
在轨 (已飞行1590 天)
发射日期:
2022-05-06 UTC
国别 :
美国 (US)
星等 :
--
This satellite is enrolled in the Space Conjunction Data Service (SCDS) and the current flight risk assessment level is: No High Risk
Orbit Information
数据来源 国际轨道数据
星历时间: 2026-09-11T17:34:27+0800
22小时前
查看轨道信息
半长轴: 6840.891km
偏心率: 0.0001076
轨道倾角: 53.161°
近地点辐角 87.394°
升交点赤经 295.917°
平近点角 272.719°
近地点: 462.017km
远地点: 463.491km
周期: 93.849分钟
每日圈数: 15.343832
Detailed Information
固有亮度:
5
最大亮度:
2.5
卫星平台:
Starlink v1.5
覆盖范围:
全球
运营商:
太空探索技术公司
运营商所在国:
美国
制造商(研发单位):
太空探索技术公司
制造商所在国:
美国
使用方式:
暂无
Satellite Introduction
星链(Starlink)计划是由太空探索技术公司(SpaceX)提出的一个巨型低轨卫星互联网星座项目,计划在2019年至2024年间在太空搭建由约1.2万颗卫星组成的“星链”网络,其中1584颗将部署在地球上空550千米处的近地轨道,并从2020年开始工作。该卫星仍在工作。
2D Orbit Map
3D Orbit Map
Orbit Altitude Analysis Chart
Orbit Inclination Analysis Chart
Orbit Comprehensive Analysis Chart
View Comprehensive Chart
Conjunction Data List
Event ID Objects TCA Miss Dist (km) Collision Risk Probability Collision Risk Index (CRI) Action
CDM_260914-092705-247006-915421
2026-09-14T
09:27:25+0000
1.492 km
极远距离
5.985772E-6 低风险 0.51
CDM_260914-031305-019205-247021
2026-09-14T
03:13:57+0000
2.663 km
极远距离
1.411371E-6 低风险 0.38
Miss Distance Evolution Trend with All Objects
Collision Probability Evolution Trend with All Objects